OPS 7613 (P/L 5) DEB, 43191

Orbit data source: Space-Track

OPS 7613 (P/L 5) DEB, 43191 is space debris in LEO originally from a launch on Tue, 30 Sep 1969 UTC launched from the Air Force Western Test Range (AFWTR). Debris objects in space refer to the collection of defunct objects orbiting the Earth. Examples of debris include non-operational satellites, rocket bodies, and fragments generated from explosions, collisions, or faulty payload assembly.

Loading next visibility...
Identifier
43191, 1969-082LJ
Orbit
LEO
Country
Flag of USUS
Related business
Manufacturer
Unknown
Mission
Spacecraft
Bus & Motor
Unknown
Mass
Unknown
Launch date (UTC)
1969-09-30 (57 years ago)
Launch vehicle
Unknown
Launch site
Air Force Western Test Range (AFWTR)
Object type
Payload
Rocket body
Debris
Shape & HBR
Unknown shape, 0.1 m
Radar Cross Section
Medium (>0.1 m² and <1 m²)

Expand to show TLE details & history
Last TLE update: 2 days ago

TLE from 2 days ago
0 OPS 7613 (P/L 5) DEB
1 43191U 69082LJ  26171.21440287  .00000097  00000-0  10826-3 0  9994
2 43191  70.0148  94.5634 0018280 128.8131 231.4611 13.96430772449078
Epoch: 2026-06-20T05:08Z
TLE epoch observation values (Epoch: 2026-06-20T05:08:44.407Z)
Latitude
-0.00002°
Longitude
108.94613°
Altitude
916.807 km
Speed
7.39 km/s
True Right ascension
06h 18m 15s
True Declination
0° 00' 00"
Sunlit
Object was in daylight at epoch
Visualization orbit readout
Latitude
Unknown
Longitude
Unknown
Altitude
Unknown
Speed
Unknown
Apparent Right ascension
Unknown
Apparent Declination
Unknown
Sunlit
N/A
Visualization observer readout
Local Sidereal Time
23:07:27
Azimuth
Unknown
Elevation
Unknown
Doppler factor
Unknown
Orbital elements
Apogee altitude
917.534 km
Perigee altitude
890.91 km
Semi-major axis
7,282.359 km
Eccentricity
0.00183
Inclination
70.0148°
RAAN
94.5634°
Arg. of periapsis
128.8131°
True anomaly
231.29749°
Mean anomaly
231.4611°
Eccentric anomaly
231.37927°
Mean motion
3.49249 °/min
Orbital period
103.08 mins
BSTAR
0.00010826

Documentation

Showing up to 5 results
|